[Iaude] MPEC F41: 2022 FX [a=2.25,e=0.48,i=12.1,H=24.5]

mpec at marsden.cfa.harvard.edu mpec at marsden.cfa.harvard.edu
Fri Mar 25 07:12:09 EDT 2022


M.P.E.C. 2022-F41                                Issued 2022 March 25, 11:10 UT

     The Minor Planet Electronic Circulars contain information on unusual
         minor planets and routine data on comets.  They are published
    on behalf of Division F of the International Astronomical Union by the
          Minor Planet Center, Smithsonian Astrophysical Observatory,
                          Cambridge, MA 02138, U.S.A.

             Prepared using the Tamkin Foundation Computer Network

                              MPC at CFA.HARVARD.EDU
            URL https://www.minorplanetcenter.net/    ISSN 1523-6714

                                    2022 FX                                     


Observations:
     K22F00X* C2022 03 23.26454410 41 18.84 +17 10 18.2                VEF041V00
     K22F00X  C2022 03 23.26995810 41 19.04 +17 09 51.6                VEF041V00
     K22F00X  C2022 03 23.27158 10 41 19.11 +17 09 44.4          22.5 GVEF041V00
     K22F00X  C2022 03 23.27535410 41 19.21 +17 09 25.7          22.24GVEF041V00
     K22F00X  C2022 03 23.27756 10 41 19.28 +17 09 15.2          22.3 GVEF041V00
     K22F00X  C2022 03 23.28133510 41 19.38 +17 08 57.0          21.98GVEF041V00
     K22F00X  C2022 03 23.28296 10 41 19.42 +17 08 48.9          22.0 GVEF041V00
     K22F00X KC2022 03 23.34450 10 41 21.30 +17 03 50.1          21.9 GVEF041291
     K22F00X KC2022 03 23.35313 10 41 21.58 +17 03 09.0                VEF041291
     K22F00X KC2022 03 23.36183 10 41 21.84 +17 02 26.1          22.1 GVEF041291
     K22F00X KC2022 03 24.12606 10 42 00.02 +16 01 10.1          22.2 GVEF041291
     K22F00X KC2022 03 24.13874 10 42 00.49 +16 00 09.6          22.3 GVEF041291
     K22F00X KC2022 03 24.15150 10 42 00.91 +15 59 08.7          22.7 GVEF041291
     K22F00X KC2022 03 24.21399310 42 02.96 +15 54 10.6          21.91GVEF041V06
     K22F00X KC2022 03 24.21792710 42 03.04 +15 53 51.5          22.31GVEF041V06
     K22F00X KC2022 03 24.22185910 42 03.15 +15 53 32.9          21.81GVEF041V06
     K22F00X 1C2022 03 24.95406 10 42 36.75 +14 54 57.9          22.9 VXEF041033
     K22F00X 1C2022 03 24.95730 10 42 36.84 +14 54 42.4          22.9 VXEF041033
     K22F00X 1C2022 03 24.96053 10 42 36.93 +14 54 26.9          23.0 VXEF041033
     K22F00X KC2022 03 25.17281 10 42 48.87 +14 37 47.0          22.1 GVEF041291
     K22F00X KC2022 03 25.18553 10 42 49.30 +14 36 46.2          22.2 GVEF041291
     K22F00X KC2022 03 25.19824 10 42 49.71 +14 35 46.1                VEF041291
     K22F00X KC2022 03 25.36090210 42 55.21 +14 22 49.6          22.90GVEF041V06
     K22F00X KC2022 03 25.36932210 42 55.53 +14 22 09.7          22.79GVEF041V06

Observer details:
033 Karl Schwarzschild Observatory, Tautenburg.  Observers S. Melnikov, C.
    Hoegner, U. Laux, F. Ludwig, B. Stecklum.  Measurer B. Stecklum.  1.34-m
    f/3 Schmidt + CCD.
291 LPL/Spacewatch II.  Observer R. A. Mastaler.  1.8-m f/2.7 reflector + CCD.
V00 Kitt Peak-Bok.  Observer H. Groeller.  Measurers M. J. Brucker, E. J.
    Christensen, C. E. Woodward, G. A. Farneth, J. B. Fazekas, D. C. Fuls, A.
    R. Gibbs, A. D. Grauer, H. Groeller, R. A. Kowalski, S. M. Larson, G. J.
    Leonard, R. S. McMillan, D. Rankin, R. L. Seaman, A. Serrano, F. C.
    Shelly, K. W. Wierzchos, B. Gray.  2.25-m reflector + CCD.
V06 Catalina Sky Survey-Kuiper.  Observer K. W. Wierzchos.  Measurers E. J.
    Christensen, G. A. Farneth, J. B. Fazekas, D. C. Fuls, A. R. Gibbs, A. D.
    Grauer, H. Groeller, R. A. Kowalski, S. M. Larson, G. J. Leonard, D.
    Rankin, R. L. Seaman, A. Serrano, F. C. Shelly, K. W. Wierzchos.  1.55-m
    reflector + 1K CCD.

Orbital elements:
2022 FX                                                  Earth MOID = 0.1862 AU
Epoch 2022 Jan. 21.0 TT = JDT 2459600.5                 Veres                   
M 346.14369              (2000.0)            P               Q                  
n   0.29203968     Peri.  160.22376     -0.96395474     -0.26556271             
a   2.2499601      Node     4.47290     +0.20702594     -0.78726078             
e   0.4796324      Incl.   12.11076     +0.16712728     -0.55650419             
P   3.37           H   24.54          G   0.15           U   9                  
Residuals in seconds of arc
220323 V00  0.8-  0.2+    220323 291  0.5+  0.1+    220324 033  0.6+  0.5+
220323 V00  0.3-  0.3-    220323 291  0.2+  0.6-    220324 033  0.2+  0.5+
220323 V00  0.1+  0.4+    220324 291  0.8-  0.0     220324 033  0.3-  0.4+
220323 V00  0.0   0.1-    220324 291  0.4-  0.1-    220325 291  0.5-  0.5+
220323 V00  0.1+  0.1+    220324 291  0.6-  0.3-    220325 291  0.5-  0.0
220323 V00  0.0   0.1+    220324 V06  0.6+  0.1+    220325 291  0.8-  0.2+
220323 V00  0.1-  0.1-    220324 V06  0.1+  0.2-    220325 V06  0.2-  0.3-
220323 291  0.4+  0.7-    220324 V06  0.1-  0.0     220325 V06  0.0   0.2+

Ephemeris:
2022 FX                  a,e,i = 2.25, 0.48, 12                  q = 1.1708
Date    TT    R. A. (2000) Decl.     Delta      r    Elong.  Phase     V
2022 02 23    10 30 54.7 +48 14 34   0.2335  1.1815   141.8    31.2    23.1
...
2022 03 10    10 34 06.2 +34 22 23   0.2036  1.1708   148.1    26.6    22.6
...
2022 03 18    10 37 48.8 +24 14 27   0.2003  1.1746   151.2    24.1    22.5
...
2022 03 24    10 41 52.4 +16 11 34   0.2051  1.1817   151.9    23.4    22.6
2022 03 25    10 42 39.4 +14 51 47   0.2065  1.1832   151.9    23.4    22.6
2022 03 26    10 43 28.2 +13 32 39   0.2081  1.1848   151.8    23.4    22.6
...
2022 04 01    10 48 59.9 +05 58 53   0.2214  1.1966   150.4    24.4    22.8
...
2022 04 09    10 58 04.8 -02 44 19   0.2488  1.2175   147.0    26.6    23.1
...
2022 04 24    11 19 31.6 -14 18 34   0.3245  1.2707   139.8    30.7    23.9

M. P. C. Staff               (C) Copyright 2022 MPC           M.P.E.C. 2022-F41




More information about the Iaude mailing list